Weather in Novotroitskoye

Russia / Republic of Tatarstan     55°01′07″N   51°27′37″E
temp.,
°C
wind,
m/s
gust,
m/s
humid.,
%
clouds,
%
prec.,
mm/h
press.,
hPa
HPBL,
m
23 april, fri
fri2300:00+3s5119332 0.0 1027341
03:00+4s588990 0.0 1027386
06:00+4sse36868 0.0 1027291
09:00+8sse44695 0.0 1027581
12:00+13se345458 0.0 10261124
15:00+14e5552100 0.0 10231385
18:00+12e3660100 0.0 1022210
21:00+9ese3770100 0.0 1022151
24 april, sat
sat2400:00+8ese3784100 0.0 1020199
03:00+7ese3891100 0.1 1018420
06:00+7e4791100 1.4 1016902
09:00+7e4891100 2.3 1015572
12:00+7ese4688100 0.4 10131020
15:00+7ese3589100 1.1 1012453
18:00+7sse2490100 0.1 1012205
21:00+6se369285 0.1 1011290
25 april, sun
sun2500:00+6se3993100 0.0 1009295
03:00+7sse61390100 0.1 1006490
06:00+5w7991100 2.1 1006733
09:00+8wsw8116471 2.9 10071475
12:00+8sw10125397 0.9 10081983
15:00+8wsw10125355 1.2 10102013
18:00+6w611765 0.3 1012998
21:00+4sw714805 0.3 1014540
26 april, mon
mon2600:00+4sw61378100 0.0 1015617
03:00+3sw613800 0.0 1017412
06:00+3sw512765 0.0 1018401
09:00+9sw7104949 0.0 10171203
12:00+11sw81037100 0.0 10171881
15:00+12sw79364 0.0 10161857
18:00+10s485190 0.0 1015255
21:00+7s2358100 0.0 101442
27 april, tue
tue2700:00+6se1159100 0.0 101210
03:00+5ese226250 0.0 101011
06:00+6se12645 0.0 101079
09:00+10s335629 0.0 1009908
12:00+12ssw4546100 0.1 10071837
15:00+12sw674495 0.2 10072002
18:00+8wnw587689 0.5 1008627
21:00+5w3679100 0.5 1010253